Time,TemperatureF,DewpointF,PressureIn,WindDirection,WindDirectionDegrees,WindSpeedMPH,WindSpeedGustMPH,Humidity,HourlyPrecipIn,Conditions,Clouds,dailyrainin,SolarRadiationWatts/m^2,SoftwareType,DateUTC
2013-09-06 00:07:00,50.6,48.0,30.25,ESE,111,0.0,0.0,91,0.00,,,0.00,0,weatherlink.com 1.10,2013-09-06 05:07:00,
2013-09-06 00:22:00,50.4,48.0,30.25,ESE,111,0.0,0.0,91,0.00,,,0.00,0,weatherlink.com 1.10,2013-09-06 05:22:00,
2013-09-06 00:37:00,49.8,47.0,30.24,ESE,111,0.0,0.0,91,0.00,,,0.00,0,weatherlink.com 1.10,2013-09-06 05:37:00,
2013-09-06 00:52:00,49.0,46.0,30.24,ESE,111,0.0,0.0,90,0.00,,,0.00,0,weatherlink.com 1.10,2013-09-06 05:52:00,
2013-09-06 01:07:00,48.9,47.0,30.23,ESE,111,0.0,0.0,94,0.00,,,0.00,0,weatherlink.com 1.10,2013-09-06 06:07:00,
2013-09-06 01:22:00,49.1,47.0,30.23,ESE,111,0.0,0.0,93,0.00,,,0.00,0,weatherlink.com 1.10,2013-09-06 06:22:00,
2013-09-06 01:37:00,48.8,47.0,30.23,ESE,111,0.0,0.0,92,0.00,,,0.00,0,weatherlink.com 1.10,2013-09-06 06:37:00,
2013-09-06 01:52:00,48.7,47.0,30.23,ESE,111,0.0,0.0,93,0.00,,,0.00,0,weatherlink.com 1.10,2013-09-06 06:52:00,
2013-09-06 02:07:00,48.7,47.0,30.23,ESE,111,0.0,0.0,93,0.00,,,0.00,0,weatherlink.com 1.10,2013-09-06 07:07:00,
2013-09-06 02:22:00,48.2,46.0,30.23,ESE,111,0.0,0.0,92,0.00,,,0.00,0,weatherlink.com 1.10,2013-09-06 07:22:00,
2013-09-06 02:37:00,47.8,46.0,30.23,ESE,111,0.0,0.0,93,0.00,,,0.00,0,weatherlink.com 1.10,2013-09-06 07:37:00,
2013-09-06 02:52:00,47.4,46.0,30.23,ESE,111,0.0,0.0,93,0.00,,,0.00,0,weatherlink.com 1.10,2013-09-06 07:52:00,
2013-09-06 03:07:00,47.1,46.0,30.23,ESE,111,0.0,0.0,94,0.00,,,0.00,0,weatherlink.com 1.10,2013-09-06 08:07:00,
2013-09-06 03:22:00,47.0,45.0,30.23,ESE,111,0.0,0.0,94,0.00,,,0.00,0,weatherlink.com 1.10,2013-09-06 08:22:00,
2013-09-06 03:37:00,46.9,46.0,30.23,ESE,111,0.0,0.0,95,0.00,,,0.00,0,weatherlink.com 1.10,2013-09-06 08:37:00,
2013-09-06 03:52:00,47.3,46.0,30.23,ESE,111,0.0,0.0,95,0.00,,,0.00,0,weatherlink.com 1.10,2013-09-06 08:52:00,
2013-09-06 04:07:00,47.2,46.0,30.24,ESE,111,0.0,0.0,94,0.00,,,0.00,0,weatherlink.com 1.10,2013-09-06 09:07:00,
2013-09-06 04:37:00,47.2,46.0,30.24,ESE,111,0.0,0.0,95,0.00,,,0.00,0,weatherlink.com 1.10,2013-09-06 09:37:00,
2013-09-06 04:52:00,46.9,46.0,30.23,ESE,111,0.0,0.0,95,0.00,,,0.00,0,weatherlink.com 1.10,2013-09-06 09:52:00,
2013-09-06 05:07:00,46.7,45.0,30.24,ESE,111,0.0,0.0,95,0.00,,,0.00,0,weatherlink.com 1.10,2013-09-06 10:07:00,
2013-09-06 05:22:00,46.6,46.0,30.23,ESE,111,0.0,0.0,96,0.00,,,0.00,0,weatherlink.com 1.10,2013-09-06 10:22:00,
2013-09-06 05:37:00,46.6,46.0,30.23,ESE,111,0.0,0.0,96,0.00,,,0.00,0,weatherlink.com 1.10,2013-09-06 10:37:00,
2013-09-06 05:52:00,46.2,45.0,30.23,ESE,111,0.0,0.0,95,0.00,,,0.00,0,weatherlink.com 1.10,2013-09-06 10:52:00,
2013-09-06 06:07:00,46.7,46.0,30.24,ESE,111,0.0,0.0,96,0.00,,,0.00,0,weatherlink.com 1.10,2013-09-06 11:07:00,
2013-09-06 06:22:00,47.0,46.0,30.23,ESE,111,0.0,0.0,97,0.00,,,0.00,0,weatherlink.com 1.10,2013-09-06 11:22:00,
2013-09-06 06:37:00,47.1,46.0,30.23,ESE,111,0.0,0.0,97,0.00,,,0.00,5,weatherlink.com 1.10,2013-09-06 11:37:00,
2013-09-06 06:53:00,47.4,47.0,30.23,ESE,111,0.0,0.0,97,0.00,,,0.00,16,weatherlink.com 1.10,2013-09-06 11:53:00,
2013-09-06 07:08:00,48.2,47.0,30.23,ESE,111,0.0,0.0,97,0.00,,,0.00,37,weatherlink.com 1.10,2013-09-06 12:08:00,
2013-09-06 07:23:00,50.5,50.0,30.23,East,86,0.0,0.0,98,0.00,,,0.00,65,weatherlink.com 1.10,2013-09-06 12:23:00,
2013-09-06 07:38:00,52.7,52.0,30.22,WSW,255,0.0,0.0,98,0.00,,,0.00,100,weatherlink.com 1.10,2013-09-06 12:38:00,
2013-09-06 07:53:00,54.7,54.0,30.22,WSW,255,0.0,0.0,98,0.00,,,0.00,132,weatherlink.com 1.10,2013-09-06 12:53:00,
2013-09-06 08:08:00,56.9,55.0,30.21,WSW,255,0.0,0.0,94,0.00,,,0.00,163,weatherlink.com 1.10,2013-09-06 13:08:00,
2013-09-06 08:23:00,59.1,57.0,30.21,WSW,255,0.0,0.0,91,0.00,,,0.00,213,weatherlink.com 1.10,2013-09-06 13:23:00,
2013-09-06 08:38:00,61.7,58.0,30.20,WSW,255,0.0,0.0,86,0.00,,,0.00,262,weatherlink.com 1.10,2013-09-06 13:38:00,
2013-09-06 08:53:00,64.0,59.0,30.20,WSW,255,0.0,0.0,84,0.00,,,0.00,292,weatherlink.com 1.10,2013-09-06 13:53:00,
2013-09-06 09:08:00,66.1,59.0,30.20,WSW,255,1.0,1.0,78,0.00,,,0.00,343,weatherlink.com 1.10,2013-09-06 14:08:00,
2013-09-06 09:23:00,67.9,59.0,30.19,WSW,255,0.0,1.0,72,0.00,,,0.00,378,weatherlink.com 1.10,2013-09-06 14:23:00,
2013-09-06 09:38:00,69.5,58.0,30.19,South,186,0.0,2.0,66,0.00,,,0.00,397,weatherlink.com 1.10,2013-09-06 14:38:00,
2013-09-06 09:53:00,69.8,57.0,30.19,South,175,0.0,1.0,64,0.00,,,0.00,178,weatherlink.com 1.10,2013-09-06 14:53:00,
2013-09-06 10:08:00,70.1,57.0,30.18,SSW,193,0.0,2.0,64,0.00,,,0.00,454,weatherlink.com 1.10,2013-09-06 15:08:00,
2013-09-06 10:23:00,71.3,59.0,30.17,SSW,193,0.0,1.0,66,0.00,,,0.00,526,weatherlink.com 1.10,2013-09-06 15:23:00,
2013-09-06 10:39:00,72.5,59.0,30.18,SW,217,0.0,2.0,63,0.00,,,0.00,555,weatherlink.com 1.10,2013-09-06 15:39:00,
2013-09-06 10:54:00,73.7,61.0,30.18,SW,217,0.0,1.0,64,0.00,,,0.00,584,weatherlink.com 1.10,2013-09-06 15:54:00,
2013-09-06 11:09:00,75.3,62.0,30.18,SW,217,0.0,1.0,64,0.00,,,0.00,613,weatherlink.com 1.10,2013-09-06 16:09:00,
2013-09-06 11:24:00,76.7,62.0,30.17,SW,217,1.0,1.0,61,0.00,,,0.00,635,weatherlink.com 1.10,2013-09-06 16:24:00,
2013-09-06 11:39:00,77.6,64.0,30.17,SW,226,0.0,1.0,63,0.00,,,0.00,717,weatherlink.com 1.10,2013-09-06 16:39:00,
2013-09-06 11:54:00,78.5,64.0,30.16,SSW,194,0.0,2.0,62,0.00,,,0.00,689,weatherlink.com 1.10,2013-09-06 16:54:00,
2013-09-06 12:09:00,78.7,66.0,30.15,SSW,203,0.0,2.0,65,0.00,,,0.00,696,weatherlink.com 1.10,2013-09-06 17:09:00,
2013-09-06 12:24:00,79.2,65.0,30.14,SSW,195,1.0,2.0,63,0.00,,,0.00,712,weatherlink.com 1.10,2013-09-06 17:24:00,
2013-09-06 12:39:00,79.4,66.0,30.13,SSW,198,0.0,3.0,64,0.00,,,0.00,717,weatherlink.com 1.10,2013-09-06 17:39:00,
2013-09-06 12:54:00,79.8,66.0,30.12,South,176,1.0,3.0,63,0.00,,,0.00,367,weatherlink.com 1.10,2013-09-06 17:54:00,
2013-09-06 13:09:00,80.2,67.0,30.11,SSW,213,0.0,3.0,64,0.00,,,0.00,202,weatherlink.com 1.10,2013-09-06 18:09:00,
2013-09-06 13:24:00,80.8,66.0,30.10,SSW,194,0.0,2.0,62,0.00,,,0.00,290,weatherlink.com 1.10,2013-09-06 18:24:00,
2013-09-06 13:39:00,81.4,67.0,30.09,South,180,1.0,3.0,62,0.00,,,0.00,714,weatherlink.com 1.10,2013-09-06 18:39:00,
2013-09-06 13:54:00,82.1,67.0,30.09,South,174,0.0,2.0,60,0.00,,,0.00,705,weatherlink.com 1.10,2013-09-06 18:54:00,
2013-09-06 14:09:00,83.0,68.0,30.09,SSW,209,1.0,3.0,61,0.00,,,0.00,701,weatherlink.com 1.10,2013-09-06 19:09:00,
2013-09-06 14:24:00,83.6,69.0,30.07,SW,230,1.0,6.0,62,0.00,,,0.00,673,weatherlink.com 1.10,2013-09-06 19:24:00,
2013-09-06 14:39:00,84.3,68.0,30.07,SW,215,1.0,3.0,59,0.00,,,0.00,666,weatherlink.com 1.10,2013-09-06 19:39:00,
2013-09-06 14:54:00,84.6,69.0,30.06,SSE,161,0.0,2.0,59,0.00,,,0.00,643,weatherlink.com 1.10,2013-09-06 19:54:00,
2013-09-06 15:09:00,85.3,69.0,30.06,SW,221,0.0,5.0,58,0.00,,,0.00,617,weatherlink.com 1.10,2013-09-06 20:09:00,
2013-09-06 15:25:00,84.8,69.0,30.05,SW,217,1.0,7.0,59,0.00,,,0.00,591,weatherlink.com 1.10,2013-09-06 20:25:00,
2013-09-06 15:40:00,84.7,68.0,30.05,WSW,246,4.0,8.0,58,0.00,,,0.00,563,weatherlink.com 1.10,2013-09-06 20:40:00,
2013-09-06 15:55:00,84.7,68.0,30.05,SSW,211,2.0,9.0,58,0.00,,,0.00,527,weatherlink.com 1.10,2013-09-06 20:55:00,
2013-09-06 16:10:00,85.2,69.0,30.05,SSW,209,2.0,4.0,58,0.00,,,0.00,496,weatherlink.com 1.10,2013-09-06 21:10:00,
2013-09-06 16:24:00,85.3,68.0,30.04,SW,229,1.0,5.0,57,0.00,,,0.00,457,weatherlink.com 1.10,2013-09-06 21:24:00,
2013-09-06 16:39:00,85.3,69.0,30.04,SW,223,1.0,4.0,58,0.00,,,0.00,415,weatherlink.com 1.10,2013-09-06 21:39:00,
2013-09-06 16:54:00,85.0,69.0,30.03,SSW,207,0.0,3.0,58,0.00,,,0.00,376,weatherlink.com 1.10,2013-09-06 21:54:00,
2013-09-06 17:09:00,85.4,69.0,30.03,WSW,240,0.0,1.0,59,0.00,,,0.00,359,weatherlink.com 1.10,2013-09-06 22:09:00,
2013-09-06 17:24:00,85.7,69.0,30.03,SSW,207,0.0,3.0,58,0.00,,,0.00,281,weatherlink.com 1.10,2013-09-06 22:24:00,
2013-09-06 17:39:00,85.4,69.0,30.03,SSW,213,0.0,2.0,58,0.00,,,0.00,294,weatherlink.com 1.10,2013-09-06 22:39:00,
2013-09-06 17:54:00,84.9,69.0,30.02,South,172,1.0,2.0,60,0.00,,,0.00,223,weatherlink.com 1.10,2013-09-06 22:54:00,
2013-09-06 18:09:00,83.5,69.0,30.02,SSE,165,0.0,2.0,61,0.00,,,0.00,151,weatherlink.com 1.10,2013-09-06 23:09:00,
2013-09-06 18:24:00,82.2,69.0,30.01,SSE,163,0.0,1.0,64,0.00,,,0.00,100,weatherlink.com 1.10,2013-09-06 23:24:00,
2013-09-06 18:39:00,81.1,69.0,30.00,SSE,163,0.0,1.0,66,0.00,,,0.00,44,weatherlink.com 1.10,2013-09-06 23:39:00,
2013-09-06 18:54:00,80.0,68.0,30.00,SSE,163,0.0,1.0,67,0.00,,,0.00,30,weatherlink.com 1.10,2013-09-06 23:54:00,
2013-09-06 19:10:00,78.8,68.0,29.99,SSE,163,0.0,1.0,69,0.00,,,0.00,9,weatherlink.com 1.10,2013-09-07 00:10:00,
2013-09-06 19:25:00,77.9,68.0,29.99,SSE,162,0.0,1.0,71,0.00,,,0.00,0,weatherlink.com 1.10,2013-09-07 00:25:00,
2013-09-06 19:40:00,76.5,67.0,29.99,SSE,162,0.0,1.0,73,0.00,,,0.00,0,weatherlink.com 1.10,2013-09-07 00:40:00,
2013-09-06 19:55:00,75.4,67.0,29.99,SSE,162,0.0,1.0,76,0.00,,,0.00,0,weatherlink.com 1.10,2013-09-07 00:55:00,
2013-09-06 20:10:00,74.6,67.0,29.99,SSE,162,0.0,1.0,77,0.00,,,0.00,0,weatherlink.com 1.10,2013-09-07 01:10:00,
2013-09-06 20:24:00,74.2,67.0,30.00,SSE,162,0.0,1.0,78,0.00,,,0.00,0,weatherlink.com 1.10,2013-09-07 01:24:00,
2013-09-06 20:40:00,73.7,66.0,30.00,SSE,162,0.0,1.0,78,0.00,,,0.00,0,weatherlink.com 1.10,2013-09-07 01:40:00,
2013-09-06 20:54:00,73.3,66.0,30.00,SSE,162,0.0,1.0,79,0.00,,,0.00,0,weatherlink.com 1.10,2013-09-07 01:54:00,
2013-09-06 21:10:00,72.8,66.0,30.00,SSE,162,0.0,1.0,80,0.00,,,0.00,0,weatherlink.com 1.10,2013-09-07 02:10:00,
2013-09-06 21:25:00,72.8,66.0,29.99,SSE,162,0.0,1.0,80,0.00,,,0.00,0,weatherlink.com 1.10,2013-09-07 02:25:00,
2013-09-06 21:39:00,72.5,66.0,29.99,SSE,162,0.0,1.0,80,0.00,,,0.00,0,weatherlink.com 1.10,2013-09-07 02:39:00,
2013-09-06 21:54:00,72.0,66.0,30.00,SSE,162,0.0,1.0,81,0.00,,,0.00,0,weatherlink.com 1.10,2013-09-07 02:54:00,
2013-09-06 22:10:00,71.1,66.0,29.99,SSE,162,0.0,0.0,83,0.00,,,0.00,0,weatherlink.com 1.10,2013-09-07 03:10:00,
2013-09-06 22:24:00,70.3,66.0,29.99,SSE,162,0.0,0.0,85,0.00,,,0.00,0,weatherlink.com 1.10,2013-09-07 03:24:00,
2013-09-06 22:39:00,69.8,66.0,29.99,SSE,162,0.0,0.0,86,0.00,,,0.00,0,weatherlink.com 1.10,2013-09-07 03:39:00,
2013-09-06 22:54:00,69.2,65.0,29.98,SSE,162,0.0,0.0,87,0.00,,,0.00,0,weatherlink.com 1.10,2013-09-07 03:54:00,
2013-09-06 23:09:00,68.5,65.0,29.98,SSE,162,0.0,0.0,89,0.00,,,0.00,0,weatherlink.com 1.10,2013-09-07 04:09:00,
2013-09-06 23:24:00,68.3,65.0,29.98,SSE,162,0.0,0.0,90,0.00,,,0.00,0,weatherlink.com 1.10,2013-09-07 04:24:00,
2013-09-06 23:39:00,68.1,65.0,29.98,SW,219,0.0,0.0,90,0.00,,,0.00,0,weatherlink.com 1.10,2013-09-07 04:39:00,
2013-09-06 23:54:00,67.9,66.0,29.98,SW,219,0.0,1.0,92,0.00,,,0.00,0,weatherlink.com 1.10,2013-09-07 04:54:00,